www.pogodaiklimat.ru

Погода и климат >> Архив погоды >> Сербия >> Сремска-Митровица


ПОГОДА в Сремска-Митровице

  • Прогноз погоды в Сремска-Митровице
  • Монитор погоды в Сремска-Митровице

АРХИВ ПОГОДЫ в Сремска-Митровице

Время (UTC), дата Ветер
(напр.,м/с)
 
Видим.   Явления Облачность Т
(С)
Тd
(С)
f
(%)
Тe
(С)
Тes
(С)
Комфортность P
(гПа)
Po
(гПа)
Тmin
(С)
Tmax
(С)
R
(мм)
R24
(мм)
S
(см)
16 14.07 З 4 20 км 8/8 1000 м
[Cu med, cong]
+22.2 +14.8 63 +26 +26 душно 1009.8 1000.3
17 14.07 З 1 15 км в посл. час гроза {дождь} 8/8 1000 м
[Cu med, cong]
+19.8 +17.8 88 +24 +24 комфорт 1010.2 1000.6
18 14.07 З 1 20 км {гроза, дождь} 8/8 1000 м
[Cu med, cong]
+19.0 +16.5 85 +22 +22 комфорт 1010.7 1001.0 +24.5 3
19 14.07 З 1 20 км 5/3 1000 м
[Sc Ci fib]
+17.9 +15.7 87 +19 +19 1011.1 1001.4
20 14.07 штиль 0 20 км ясно +16.2 +14.9 92 +16 +16 1011.6 1001.8
21 14.07 ЮЗ 1 20 км ясно +15.5 +14.2 92 +16 +16 1011.8 1002.0
22 14.07 З 1 20 км ясно +15.1 +14.3 95 +16 +16 1011.9 1002.1
23 14.07 З 1 20 км ясно +14.5 +13.7 95 +15 +15 1011.8 1001.9
00 15.07 З 1 10 км ясно +13.5 +12.7 95 +14 +14 1011.7 1001.8
01 15.07 СЗ 1 10 км ясно +13.4 +12.7 96 +13 +13 1011.7 1001.8
02 15.07 З 2 10 км ясно +12.9 +12.2 96 +12 +12 1011.5 1001.6
03 15.07 З 1 10 км 3/3 1000 м
[Sc]
+12.5 +11.8 95 +12 +12 1011.4 1001.5
04 15.07 З 2 10 км ясно +12.6 +11.7 94 +12 +12 1011.5 1001.6
05 15.07 З 2 20 км ясно +14.6 +13.4 93 +14 +16 1011.6 1001.8
06 15.07 З 2 20 км 3/3 1000 м
[Sc]
+16.6 +15.0 90 +17 +20 1011.7 1002.0 +12.1
07 15.07 ЮЗ 2 20 км ясно +18.6 +16.1 85 +20 +29 1011.9 1002.2
08 15.07 ЮЗ 2 20 км 3/3 1000 м
[Cu med, cong]
+20.4 +15.5 73 +24 +33 комфорт 1012.0 1002.4
09 15.07 С 2 20 км 3/3 1000 м
[Cu med, cong]
+22.0 +15.4 66 +26 +37 душно 1012.1 1002.5
10 15.07 СЗ 3 20 км 3/3 1000 м
[Cu med, cong]
+22.8 +13.4 55 +26 +36 жарко 1012.1 1002.5
11 15.07 С 2 20 км 4/4 1000 м
[Cu med, cong]
+23.6 +13.7 54 +26 +37 жарко 1012.2 1002.6
12 15.07 С 2 20 км 5/5 1000 м
[Cu med, cong]
+24.3 +13.4 51 +27 +35 жарко 1011.9 1002.3
13 15.07 С 3 20 км 3/3 1000 м
[Cu med, cong]
+24.7 +12.7 47 +27 +35 жарко 1011.5 1002.0
14 15.07 С 2 20 км 3/3 1000 м
[Cu med, cong]
+25.4 +11.8 43 +27 +34 жарко 1011.4 1001.9
15 15.07 С 2 20 км 1/1 1000 м
[Cu hum]
+25.4 +11.8 43 +27 +33 жарко 1011.4 1001.9
16 15.07 С 2 20 км 3/1 1000 м
[Cu hum Ci fib]
+24.4 +11.3 44 +26 +29 жарко 1011.3 1001.8
17 15.07 С 1 20 км 4/0
[Ci sp]
+23.2 +13.0 53 +26 +27 жарко 1011.5 1001.9
18 15.07 С 1 20 км 6/0
[Ac trans Ci sp]
+21.0 +13.7 63 +25 +25 комфорт 1011.8 1002.2 +25.5
19 15.07 С 1 20 км ясно +18.4 +14.5 78 +20 +20 1012.0 1002.3
20 15.07 С 1 20 км 4/0
[Ci sp]
+16.8 +14.0 84 +18 +18 1012.6 1002.8
21 15.07 З 1 20 км ясно +15.0 +13.3 90 +15 +15 1013.0 1003.1
22 15.07 ЮЗ 1 20 км ясно +14.1 +12.5 90 +14 +14 1013.1 1003.2
23 15.07 штиль 0 15 км ясно +13.7 +12.3 91 +13 +13 1013.2 1003.3
00 16.07 З 1 15 км ясно +13.1 +11.9 92 +13 +13 1013.1 1003.2
01 16.07 ЮЗ 1 15 км ясно +13.0 +11.8 92 +13 +13 1012.9 1003.0
02 16.07 З 1 15 км ясно +13.0 +11.8 92 +13 +13 1012.8 1002.9
03 16.07 З 1 15 км 3/0
[Ac lent]
+11.7 +10.6 93 +11 +11 1012.7 1002.7
04 16.07 З 2 15 км 5/0
[Ac lent Ci sp]
+12.4 +11.3 93 +11 +12 1012.8 1002.8
05 16.07 ЮЗ 2 15 км ясно +14.5 +13.5 94 +14 +16 1013.1 1003.2
06 16.07 ЮЗ 2 20 км ясно +16.6 +15.0 90 +17 +22 1012.8 1003.0 +11.7
07 16.07 З 1 20 км ясно +19.6 +14.8 74 +23 +33 комфорт 1012.9 1003.2
08 16.07 Ю 1 20 км ясно +22.2 +15.0 64 +26 +41 душно 1012.9 1003.3
09 16.07 СЗ 1 20 км 3/3 1000 м
[Cu med, cong]
+24.3 +13.4 51 +27 +40 жарко 1013.0 1003.5
10 16.07 ЮЗ 1 20 км 8/8 1000 м
[Cu med, cong]
+24.6 +14.2 52 +27 +31 жарко 1013.0 1003.5
11 16.07 ЮЗ 1 20 км 8/8 1000 м
[Cu med, cong]
+24.6 +14.2 52 +27 +31 жарко 1013.0 1003.5
12 16.07 С 2 20 км 8/8 1000 м
[Cu Sc]
+24.7 +10.3 40 +26 +29 жарко 1012.5 1003.0
13 16.07 С 2 20 км 8/8 1000 м
[Cu med, cong]
+26.4 +11.9 40 +28 +30 жарко 1012.0 1002.5
14 16.07 С 2 20 км 8/8 1000 м
[Cu med, cong]
+26.0 +8.5 33 +26 +28 жарко 1011.8 1002.3
15 16.07 С 2 20 км 5/5 1000 м
[Cu med, cong]
+26.4 +9.5 34 +27 +30 жарко 1011.6 1002.1
16 16.07 С 2 20 км 5/5 1000 м
[Cu med, cong]
+26.2 +9.9 36 +27 +28 жарко 1011.7 1002.2
17 16.07 С 1 20 км 3/3 1000 м
[Cu med, cong]
+25.7 +12.9 45 +28 +28 жарко 1011.7 1002.2
18 16.07 СЗ 1 20 км 3/3 1000 м
[Cu med, cong]
+22.7 +15.2 63 +27 +27 душно 1012.0 1002.4 +27.0
19 16.07 С 1 20 км ясно +19.5 +16.7 84 +23 +23 комфорт 1012.5 1002.8
20 16.07 СВ 1 20 км ясно +17.5 +14.8 84 +19 +19 1013.0 1003.3
21 16.07 В 1 20 км ясно +15.2 +12.9 86 +16 +16 1013.4 1003.5
22 16.07 штиль 0 20 км ясно +14.0 +12.4 90 +14 +14 1013.4 1003.6
23 16.07 З 1 20 км ясно +13.5 +12.1 91 +14 +14 1013.6 1003.7
01 17.07 З 1 20 км ясно +13.0 +12.0 94 +13 +13 1013.4 1003.5
02 17.07 З 1 20 км ясно +13.0 +12.0 94 +13 +13 1013.4 1003.5
03 17.07 З 2 20 км ясно +12.8 +11.8 94 +12 +12 1013.6 1003.5
04 17.07 З 2 20 км ясно +12.8 +12.0 95 +12 +12 1013.6 1003.7
05 17.07 З 2 20 км ясно +14.6 +13.6 94 +14 +16 1013.7 1003.8
06 17.07 З 2 20 км ясно +17.1 +15.2 89 +17 +22 1013.8 1004.0 +12.0
07 17.07 З 2 20 км ясно +20.4 +14.9 71 +24 +32 комфорт 1013.6 1003.9
08 17.07 З 2 20 км 3/0
[Ac trans]
+23.1 +14.0 57 +27 +37 душно 1013.6 1004.0
09 17.07 СЗ 2 20 км ясно +24.6 +14.9 55 +27 +43 жарко 1013.4 1003.9
10 17.07 СЗ 2 20 км ясно +25.4 +14.0 49 +28 +46 жарко 1013.2 1003.7
11 17.07 СЗ 3 20 км 4/4 1000 м
[Cu med, cong]
+26.3 +14.2 47 +29 +38 жарко 1012.9 1003.4
12 17.07 З 2 20 км 3/3 1000 м
[Cu med, cong]
+26.9 +13.4 43 +29 +41 жарко 1012.4 1003.0
13 17.07 СЗ 3 20 км 3/3 1000 м
[Cu med, cong]
+27.2 +12.6 40 +29 +37 жарко 1012.2 1002.8
14 17.07 С 1 20 км 3/3 1000 м
[Cu med, cong]
+27.2 +13.4 43 +29 +38 жарко 1012.0 1002.6
15 17.07 З 2 20 км 3/3 1000 м
[Cu med, cong]
+27.7 +14.1 43 +30 +34 жарко 1011.8 1002.4
16 17.07 З 2 20 км ясно +27.4 +14.7 46 +30 +33 жарко 1011.4 1002.0
17 17.07 З 2 20 км ясно +26.6 +15.5 51 +30 +31 душно 1011.3 1001.9
18 17.07 ЮЗ 2 20 км ясно +23.2 +17.0 68 +28 +28 душно 1011.5 1001.9 +27.8
19 17.07 ЮЗ 1 20 км ясно +20.6 +16.9 79 +25 +25 комфорт 1011.6 1002.0
20 17.07 СВ 2 20 км ясно +18.6 +16.6 88 +20 +20 1012.1 1002.4
21 17.07 З 1 20 км ясно +17.6 +15.5 87 +19 +19 1012.2 1002.5
22 17.07 штиль 0 20 км ясно +16.2 +14.6 90 +16 +16 1012.4 1002.6
23 17.07 штиль 0 20 км 3/0
[Ci fib]
+15.6 +14.0 90 +15 +15 1012.2 1002.4
00 18.07 СВ 1 20 км 3/0
[Ci fib]
+14.8 +13.5 92 +15 +15 1012.4 1002.5
01 18.07 СВ 1 20 км 4/0
[Ci fib]
+14.6 +13.4 93 +15 +15 1012.3 1002.4
02 18.07 СВ 1 20 км ясно +13.7 +12.5 92 +14 +14 1012.1 1002.2
03 18.07 СВ 1 20 км ясно +13.2 +12.4 95 +13 +13 1012.3 1002.4
04 18.07 СВ 1 20 км ясно +13.3 +12.5 95 +13 +14 1012.6 1002.7
05 18.07 СВ 1 20 км ясно +16.0 +14.4 90 +17 +19 1012.6 1002.8
06 18.07 штиль 0 20 км 3/0
[Ci fib]
+19.3 +16.0 81 +21 +27 комфорт 1012.8 1003.1 +12.8
07 18.07 штиль 0 20 км 4/0
[Ci fib]
+22.8 +18.3 76 +28 +39 душно 1012.8 1003.3
08 18.07 ЮВ 2 20 км 4/0
[Ci fib]
+24.7 +15.4 56 +28 +39 душно 1012.5 1003.0
09 18.07 ЮВ 2 20 км 4/0
[Ci fib]
+26.4 +15.3 50 +29 +44 жарко 1012.7 1003.2
10 18.07 В 2 20 км 4/0
[Ci fib]
+27.1 +14.7 47 +30 +46 душно 1012.7 1003.2
11 18.07 СВ 1 20 км 3/3 1000 м
[Cu hum]
+27.4 +14.3 45 +30 +45 жарко 1012.7 1003.2
12 18.07 В 2 20 км 3/3 1000 м
[Cu med, cong]
+28.1 +13.4 40 +30 +42 жарко 1012.5 1003.0
13 18.07 Ю 2 20 км 3/3 1000 м
[Cu med, cong]
+29.0 +13.2 38 +31 +40 жарко 1012.3 1002.9
14 18.07 В 2 20 км 3/3 1000 м
[Cu med, cong]
+29.0 +13.0 37 +30 +38 жарко 1012.3 1002.9
15 18.07 В 2 20 км 3/3 1000 м
[Cu hum]
+28.9 +12.7 37 +30 +35 жарко 1011.9 1002.5
16 18.07 В 4 20 км 5/5 1000 м
[Cu med, cong]
+28.2 +12.8 39 +30 +31 жарко 1011.8 1002.4
17 18.07 В 2 20 км 8/8 1000 м
[Cu Sc]
+26.5 +11.6 39 +28 +28 жарко 1011.8 1002.4
18 18.07 В 2 20 км 8/8 1000 м
[Sc]
+24.2 +12.5 48 +26 +26 жарко 1012.2 1002.7 +29.4
19 18.07 СВ 1 20 км 9/9 1000 м
[Sc]
+22.7 +12.8 54 +26 +26 жарко 1013.1 1003.5
20 18.07 З 5 20 км 6/6 1000 м
[Sc]
+22.4 +13.4 57 +25 +25 комфорт 1014.6 1005.0
21 18.07 З 2 20 км 8/8 1000 м
[Sc]
+20.2 +14.3 69 +23 +23 комфорт 1015.4 1005.7
22 18.07 С 1 20 км 8/8 1000 м
[Sc]
+18.6 +14.4 77 +20 +20 1015.7 1006.0
23 18.07 З 1 20 км 8/8 1000 м
[Sc]
+18.2 +14.7 80 +20 +20 1015.9 1006.2
00 19.07 штиль 0 20 км 6/6 1000 м
[Sc]
+17.2 +15.5 90 +17 +17 1015.6 1005.8
01 19.07 В 1 20 км 4/4 1000 м
[Sc]
+16.2 +14.8 91 +17 +17 1015.4 1005.6
02 19.07 штиль 0 20 км 4/4 1000 м
[Cu med, cong]
+15.7 +14.6 93 +15 +15 1015.8 1006.0
03 19.07 В 1 20 км 5/5 1000 м
[Sc]
+15.5 +14.7 95 +16 +16 1015.8 1006.0
04 19.07 Ю 1 20 км 8/8 1000 м
[Sc]
+15.6 +14.8 95 +16 +16 1016.2 1006.4
05 19.07 ЮЗ 1 20 км 6/6 1000 м
[Sc]
+17.1 +15.8 92 +18 +19 1016.6 1006.8
06 19.07 З 2 20 км 5/5 1000 м
[Sc]
+19.1 +16.9 87 +21 +24 комфорт 1017.0 1007.3 +15.2
07 19.07 ЮЗ 2 20 км 3/0
[Ci fib]
+21.4 +17.9 80 +26 +34 душно 1017.0 1007.3
08 19.07 ЮЗ 1 20 км ясно +23.3 +16.7 66 +28 +43 душно 1017.1 1007.5
09 19.07 ЮЗ 1 20 км ясно +25.0 +16.3 58 +28 +47 жарко 1017.1 1007.6
10 19.07 Ю 2 20 км ясно +26.3 +14.9 49 +29 +47 жарко 1017.0 1007.5
11 19.07 ЮВ 1 20 км ясно +27.3 +14.7 46 +30 +51 опасность
солнечного
удара
1016.8 1007.3
12 19.07 ЮЗ 2 20 км 1/1 1000 м
[Cu hum]
+17.6 +14.1 80 +18 +33 опасность
простуды
1016.5 1007.0
13 19.07 Ю 2 20 км 1/1 1000 м
[Cu hum]
+27.9 +14.3 43 +30 +43 жарко 1016.0 1006.5
14 19.07 СЗ 1 20 км 1/1 1000 м
[Cu hum]
+28.3 +14.2 42 +30 +41 жарко 1015.6 1006.1
15 19.07 СЗ 1 20 км ясно +28.6 +13.7 40 +30 +38 жарко 1015.3 1005.8
16 19.07 Ю 1 20 км ясно +28.6 +13.7 40 +30 +34 жарко 1015.3 1005.8
17 19.07 З 1 20 км ясно +28.1 +15.5 46 +31 +32 душно 1015.5 1006.0
18 19.07 штиль 0 20 км ясно +25.0 +19.9 73 +31 +31 очень
душно
1015.9 1006.4 +29.3
19 19.07 штиль 0 20 км ясно +21.4 +18.5 84 +26 +26 душно 1016.6 1006.9
20 19.07 СВ 1 20 км ясно +20.1 +18.4 90 +24 +24 комфорт 1017.2 1007.5
21 19.07 В 1 20 км ясно +18.8 +17.2 90 +21 +21 комфорт 1017.6 1007.8
22 19.07 СВ 2 20 км ясно +17.5 +16.1 91 +18 +18 1017.6 1007.8
23 19.07 В 1 20 км ясно +16.6 +15.3 92 +17 +17 1017.6 1007.8
00 20.07 штиль 0 20 км ясно +16.1 +14.9 93 +16 +16 1017.6 1007.7
01 20.07 С 1 20 км ясно +15.4 +14.2 93 +16 +16 1017.4 1007.5
02 20.07 ЮВ 1 20 км ясно +14.6 +13.6 94 +15 +15 1017.6 1007.7
03 20.07 СВ 1 20 км ясно +14.4 +13.4 94 +15 +15 1017.9 1008.0
04 20.07 СВ 1 20 км ясно +15.0 +14.0 94 +15 +16 1018.2 1008.3
05 20.07 В 1 20 км ясно +18.0 +15.9 88 +19 +21 1018.3 1008.5
06 20.07 штиль 0 15 км ясно +21.5 +17.5 78 +26 +32 душно 1018.7 1009.0 +14.2
07 20.07 ЮЗ 1 20 км ясно +23.0 +18.1 74 +29 +39 очень
душно
1019.0 1009.4
08 20.07 Ю 1 20 км ясно +25.4 +17.8 63 +30 +44 душно 1018.9 1009.3
09 20.07 Ю 1 20 км ясно +27.1 +18.2 58 +32 +50 очень
душно
1018.8 1009.3
10 20.07 ЮВ 1 20 км 3/3 1000 м
[Cu hum]
+28.5 +17.5 51 +33 +47 очень
душно
1018.7 1009.2
11 20.07 Ю 2 20 км 3/3 1000 м
[Cu hum]
+29.3 +17.4 49 +33 +46 душно 1018.5 1009.1
12 20.07 Ю 2 20 км 3/3 1000 м
[Cu hum]
+29.8 +17.1 46 +33 +45 душно 1018.3 1008.9
13 20.07 ЮЗ 2 20 км 3/3 1000 м
[Cu hum]
+30.3 +14.0 37 +32 +42 жарко 1017.9 1008.5
14 20.07 Ю 2 20 км 3/3 1000 м
[Cu hum]
+30.7 +14.5 37 +33 +40 душно 1017.6 1008.2
15 20.07 Ю 1 20 км ясно +31.0 +14.4 36 +33 +40 душно 1017.4 1008.0
16 20.07 СВ 1 20 км ясно +30.8 +14.1 36 +32 +36 жарко 1017.2 1007.8
17 20.07 С 1 20 км ясно +29.8 +15.9 43 +33 +34 душно 1017.0 1007.6
18 20.07 СВ 1 20 км ясно +26.3 +20.1 69 +32 +32 очень
душно
1017.3 1007.8 +31.2
19 20.07 СВ 2 20 км ясно +23.3 +19.2 78 +30 +30 очень
душно
1017.8 1008.2
20 20.07 В 1 20 км ясно +20.4 +17.8 85 +25 +25 комфорт 1017.9 1008.2
21 20.07 В 2 20 км ясно +19.0 +16.8 87 +21 +21 комфорт 1018.5 1008.8
22 20.07 В 1 20 км ясно +18.5 +16.6 89 +20 +20 1018.5 1009.0
23 20.07 В 1 20 км ясно +18.4 +16.9 91 +20 +20 1018.9 1009.1
00 21.07 СВ 2 20 км ясно +17.2 +15.8 91 +18 +18 1018.6 1008.8
01 21.07 СВ 2 20 км ясно +17.0 +15.0 88 +17 +17 1018.6 1008.8
02 21.07 ЮВ 1 20 км ясно +16.8 +15.5 92 +18 +18 1018.3 1008.5
03 21.07 ЮВ 1 20 км ясно +15.9 +14.6 92 +17 +17 1018.3 1008.5
04 21.07 В 1 20 км ясно +16.3 +15.0 92 +17 +17 1018.5 1008.7
05 21.07 СВ 1 20 км 3/0
[Ci fib]
+18.4 +17.0 92 +20 +22 1019.0 1009.2
06 21.07 Ю 1 20 км 3/0
[Ci fib]
+21.7 +18.3 81 +26 +32 душно 1019.2 1009.5 +15.8
07 21.07 ЮЗ 1 20 км ясно +24.2 +17.6 67 +28 +38 душно 1019.3 1009.7
08 21.07 З 1 20 км ясно +26.5 +17.5 58 +31 +45 душно 1019.1 1009.5
09 21.07 Ю 1 20 км ясно +28.5 +18.4 54 +33 +52 опасность
солнечного
удара
1019.0 1009.5
10 21.07 Ю 1 20 км ясно +30.1 +19.6 53 +36 +57 опасность
солнечного
удара
1019.0 1009.5
11 21.07 ЮЗ 1 20 км ясно +31.0 +19.0 49 +36 +58 опасность
солнечного
удара
1018.7 1009.4
12 21.07 З 1 20 км ясно +31.6 +16.5 40 +35 +54 опасность
солнечного
удара
1018.5 1009.2
13 21.07 СВ 1 20 км 3/0
[Ci fib]
+32.0 +16.7 40 +35 +51 опасность
солнечного
удара
1018.1 1008.8
14 21.07 З 1 20 км 3/0
[Ci fib]
+32.8 +17.0 39 +36 +47 очень
душно
1017.9 1008.6
15 21.07 ЮЗ 1 20 км 4/0
[Ci fib]
+32.6 +16.9 39 +36 +43 очень
душно
1017.5 1008.2
16 21.07 З 1 20 км 4/0
[Ci fib]
+32.5 +16.6 39 +36 +39 очень
душно
1017.3 1008.0

 

Местоположение метеостанции Сремска-Митровица (Сербия): широта 45.10 долгота 19.55 высота над уровнем моря 83 м.

В архиве по умолчанию представлена погода в Сремска-Митровице за последнюю неделю. Архивные данные за месяц целиком и за предыдущие месяцы, начиная с января 2011 года, Вы можете получить, выбрав интересующий диапазон дат из раскрывающегося списка и нажав кнопку "Ввод!".


*Определитесь, кто Вы:
робот инопланетянин человек

Внимание! Время в таблицах - всемирное. Для получения местного времени необходимо прибавить поправку, которая равна 1 ч.

Смотрите также архив погоды в соседних городах и на ближайших метеорологических станциях:

Погода в Нови-Саде (Сербия) (35 км)
Погода в Белград аэропорту (Сербия) (65 км)
Погода в Лознице (Сербия) (66 км)
Погода в Градиште (Хорватия) (67 км)
Погода в Осиек аэропорту (Хорватия) (70 км)
Погода в Зренянине (Сербия) (74 км)
Погода в Белграде (Сербия) (80 км)
Погода в Сомборе (Сербия) (81 км)
Погода в Осиек-Чепине (Хорватия) (89 км)
Погода в Тузле (Босния и Герцеговина) (91 км)

Пояснения к столбцам:

Ветер - указаны скорость ветра в м/с - средняя за 10 мин, порывы в срок и между сроками (в фигурных скобках) и направление, откуда дует ветер: С - северный, СВ - северо-восточный, В - восточный, ЮВ - юго-восточный, Ю - южный, ЮЗ - юго-западный, З - западный, СЗ - северо-западный.
Видимость - горизонтальная дальность видимости в метрах или километрах. При видимости от 1 до 10 км при отсутствии осадков обычно наблюдается дымка, при ухудшении видимости до 1 км и менее - туман. В сухую погоду видимость может ухудшаться дымом, пылью или мглою.
Явления - указаны атмосферные явления, наблюдавшиеся в срок или в последний час перед сроком; фигурными скобками обозначены явления, наблюдавшиеся между сроками (за 1-3 часа до срока); квадратными скобками обозначены град или гололедные отложения с указанием их диаметра в мм.
Облачность - указаны через наклонную черту общая и нижняя облачность в баллах и высота нижней границы облаков в метрах; квадратными скобками обозначены формы облаков: Ci - перистые, Cs - перисто-слоистые, Cc - перисто-кучевые, Ac - высококучевые, As - высокослоистые, Sc - слоисто-кучевые, Ns - слоисто-дождевые, Cu - кучевые, Cb - кучево-дождевые. Подробнее классификацию облаков см. в Атласе облаков (PDF).
T - Температура воздуха - температура, измеренная на высоте 2 м над землей.
Td - Температура точки росы - температура, при понижении до которой содержащийся в воздухе водяной пар достигнет насыщения.
f - Относительная влажность воздуха - влажноcть воздуха, измеренная на высоте 2 м над землей.
Te - Эффективная температура - температура, которую ощущает одетый по сезону человек в тени. Характеристика душности погоды. При расчете учитывается влияние влажности воздуха и скорости ветра на теплоощущения человека.
Tes - Эффективная температура на солнце - температура, которую ощущает человек, с поправкой на солнечный нагрев. Характеристика знойности погоды. Зависит от высоты солнца над горизонтом, облачности и скорости ветра. Ночью, в пасмурную погоду, а также при ветре 12 м/с и более поправка равна нулю.
P - Атмосферное давление - приведенное к уровню моря атмосферное давление.
Po - Атмосферное давление - измеренное на уровне метеостанции атмосферное давление.
Tmin - Минимальная температура - минимум температуры воздуха на высоте 2 м над землей.
Tmax - Максимальная температура - максимум температуры воздуха на высоте 2 м над землей.
R - Количество осадков - Количество выпавших осадков за период времени, мм. При наведении курсора мыши на число - период времени, за который выпало указанное количество осадков.
R24 - Количество осадков - Количество выпавших осадков за 24 часа, мм.
S - Снежный покров - Высота снежного покрова, см. При наведении курсора мыши на число - состояние снежного покрова и степень покрытия местности в баллах.